Tracking 31027 objects as of 19-Jul-2025
HD Live streaming from Space Station
objects crossing your sky now

COSMOS 1285 DEB

Track COSMOS 1285 DEB now!


NORAD ID: 25838
Int'l Code: 1981-071G
Perigee: 3,624.6 km
Apogee: 37,170.4 km
Inclination: 67.9 °
Period: 726.4 minutes
Semi major axis: 26768 km
RCS: 0.2959 m2 (medium)
Launch date: August 4, 1981
Source: Commonwealth of Independent States (former USSR) (CIS)
Launch site: PLESETSK MISSILE AND SPACE COMPLEX (PKMTR)

Note: This is SATELLITE DEBRIS
Your satellite tracking list
FENGYUN 1C DEB
Track 1 satellite(s)




NASA's NSSDC Master Catalog

Two Line Element Set (TLE):
1 25838U 81071G   25196.50175339 -.00000248  00000-0  00000-0 0  9994
2 25838  67.9190 101.0625 6265913   1.1176 359.8848  1.98228645 81495
Source of the keplerian elements: AFSPC